[Date Prev][Date Next][Thread Prev][Thread Next] - [Date Index][Thread Index][Author Index]

2 Line ISS Keps 7-19



ISS
1 25544U 98067A   03200.13941983  .00007220  00000-0  91926-4 0  2415
2 25544  51.6303 219.4895 0008460  25.8321  90.6234 15.60518115265995



----
Via the sarex mailing list at AMSAT.ORG courtesy of AMSAT-NA.
To unsubscribe, send "unsubscribe sarex" to Majordomo@amsat.org



AMSAT Top AMSAT Home